Location: Boleita
(10.4833°N, 66.8167°W)
Time: 03:03:55
(UTC+00:00)

Cosmos 1943 Rocket - Pass Details

Date: 08 November 2025
Orbit: 812 x 841 km, 71.0° (Epoch: 09 December)

Event Time Altitude Azimuth Distance (km) Brightness Sun altitude
Rises 00:09:09 0° 227° (SW) 3,385 6.2 -31.1°
Reaches altitude 10° 00:12:16 10° 244° (WSW) 2,450 5.4 -31.8°
Maximum altitude 00:16:13 20° 289° (WNW) 1,860 4.5 -32.8°
Drops below altitude 10° 00:20:11 10° 334° (NNW) 2,443 4.7 -33.7°
Enters shadow 00:20:23 - 336° (NNW) 2,497 4.7 -33.8°
